Portada
METAR-TAF:

METAR-TAF

Aeropuertos :

Barrancabermeja, Colombia

Aeropuerto Yariguíes

latitud: 07-01N, longitud: 073-48W, altitud: 126 m

Observación

El informe se hizo hace 29 minutos, a las 22:00 UTC
Viento 3 kt del norte
Temperatura 32°C
Humedad 63%
Presión 1004 hPa
Visibilidad 10 km o más
Escasas nubes a una altura de 1700 ft

METAR: SKEJ 212200Z 36003KT 9999 FEW017 32/24 A2965

Hora: 17:29 (22:29 UTC)


TAF: falta

Observaciones y pronósticos meteorológicos de más de 4000 aeropuertos (mensajes METAR y TAF).

Los puntos amarillos y rojos representan las estaciones disponibles.

Ponga el ratón en el punto deseado para ver el nombre de la estación.

Haga clic para ver las observaciones y los pronósticos meteorológicos.

Para cambiar el mapa : haga clic en los botones verdes con una cruz de color negro para hacer un zoom, en el botón verde con un guión para alejar o en las flechas verdes para mapas adyacentes.


METAR-TAF: